Regional Weather Roundup
Issued by NWS Upton, NY

Current Version | Previous Version | Text Only | Print | Product List | Glossary On
Versions: 1 2 3 4 5 6 7 8 9 10 11 12 13 14 15 16 17 18 19 20 21 22 23 24 25 26 27 28 29 30 31 32 33 34 35 36 37 38 39 40 41 42 43 44 45 46 47 48 49 50
000 ASUS41 KOKX 020604 RWROKX REGIONAL WEATHER ROUNDUP NATIONAL WEATHER SERVICE NEW YORK NY 200 AM EDT WED SEP 02 2015 NOTE: "FAIR" INDICATES FEW OR NO CLOUDS BELOW 12,000 FEET WITH NO SIGNIFICANT WEATHER AND/OR OBSTRUCTIONS TO VISIBILITY. NYZ071-072-176-178-NJZ106-104-020700- NEW YORK CITY METRO AREA CITY SKY/WX TMP DP RH WIND PRES REMARKS CENTRAL PARK FAIR 77 62 59 CALM 30.07F LAGUARDIA APRT FAIR 76 68 76 S5 30.04F KENNEDY INTL FAIR 74 70 87 SW6 30.06S NEWARK/LIBERTY FAIR 74 67 78 SW3 30.04F BRNX BOT. GARD N/A 73 63 68 SE2 30.06F TETERBORO FAIR 73 65 75 CALM 30.03F $$ NYZ177-179-078>081-020700- LONG ISLAND NEW YORK CITY SKY/WX TMP DP RH WIND PRES REMARKS FARMINGDALE FAIR 72 68 87 CALM 30.05F ISLIP FAIR 70 68 93 SW3 30.04S FOG SHIRLEY FAIR 66 64 93 CALM 30.05F FOG WESTHAMPTON FOG 60 58 92 CALM 30.07S VSB 1/4 MONTAUK POINT N/A 71 68 90 CALM 30.07S $$ NYZ052-065-067-020700- HUDSON VALLEY CITY SKY/WX TMP DP RH WIND PRES REMARKS WHITE PLAINS FAIR 67 65 93 CALM 30.05F NEWBURGH NOT AVBL MONTGOMERY FAIR 63 62 97 CALM 30.05F POUGHKEEPSIE FAIR 64 60 87 CALM 30.04S ALBANY FAIR 67 63 87 CALM 30.04S $$ NJZ001-105-106-008-010-013-015-019>022-104-020700- NEW JERSEY CITY SKY/WX TMP DP RH WIND PRES REMARKS NEWARK/LIBERTY FAIR 74 67 78 SW3 30.04F TETERBORO FAIR 73 65 75 CALM 30.03F CALDWELL FAIR 68 63 84 CALM 30.05F MORRISTOWN N/A 61 57 88 CALM 30.06S FOG SOMERVILLE FAIR 66 63 90 CALM 30.04S FOG SUSSEX FAIR 62 59 90 CALM 30.07S ANDOVER N/A 63 62 97 CALM 30.07F TRENTON FAIR 72 66 81 CALM 30.04F MILLVILLE FOG 71 70 96 CALM 30.04S VSB 3/4 ATLANTIC CITY FAIR 72 71 97 CALM 30.04F FOG WRIGHTSTOWN CLEAR 67 67 99 CALM 30.02F FOG TOMS RIVER CLOUDY 64 61 88 CALM 30.05F BELMAR FAIR 70 63 78 CALM 30.05F $$ PAZ047>061-062-071-020700- EASTERN PENNSYLVANIA CITY SKY/WX TMP DP RH WIND PRES REMARKS PHILADELPHIA FAIR 75 71 87 CALM 30.05S HAZE ALLENTOWN FAIR 68 64 87 CALM 30.06S SCRANTON FAIR 67 61 81 E8 30.07F $$ CTZ002-004>006-009-010-012-RIZ004-006-007-MAZ004-011-015-020700- SOUTHERN NEW ENGLAND IN CT CITY SKY/WX TMP DP RH WIND PRES REMARKS BRADLEY INTL FAIR 66 62 87 CALM 30.03F HARTFORD FAIR 68 66 93 S3 30.04S DANBURY FAIR 63 60 90 SW3 30.08S FOG WTRBRY/OXFORD FAIR 66 57 72 CALM 30.08F BRIDGEPORT FAIR 72 66 81 CALM 30.05F MERIDEN FAIR 64 61 90 CALM 30.05F NEW HAVEN FAIR 66 63 90 CALM 30.05F CHESTER NOT AVBL GROTON FAIR 65 64 97 CALM 30.05S FOG WILLIMANTIC FAIR 62 59 90 CALM 30.06S IN RI CITY SKY/WX TMP DP RH WIND PRES REMARKS PROVIDENCE FAIR 66 64 93 SW3 30.05F BLOCK ISLAND FAIR 70 68 94 SW7 30.06S WESTERLY FAIR 62 60 93 CALM 30.06S FOG IN MA CITY SKY/WX TMP DP RH WIND PRES REMARKS BOSTON FAIR 69 61 75 SW10 30.03F WORCESTER FAIR 65 60 84 W10 30.06F WESTFIELD FAIR 62 60 93 CALM 30.04F PROVINCETOWN N/A 66 61 82 SW8 30.04F NANTUCKET FAIR 63 60 90 S7 30.05F $$ ANZ330-335-338-340-345-350-353-355-020700- COASTAL MARINE OBSERVATIONS STATION/POSITION TIME SKY/WX TEMP WIND PRES VSBY WAVE AIR SEA DIR/SP/G HT/PER (UTC) (F) (DEG/KT/KT) (MB) (MI) (FT/S) NY HARB ENTRANCE 0550 76 76 200/ 6/ 6 1017.2 1/10 4S FIRE IS NOT AVBL 20S FIRE ISLAND 0450 74 75 180/ 4/ 6 1017.6 2/ 8 GREAT SOUTH BAY 0500 75 79 230/ 6/ 8 N/A 23SW MTP 0550 72 72 200/ 2/ 4 1017.4 2/ 8 HUDSON CANYON NOT AVBL KINGS POINT 0500 74 74 170/ 3/ 4 1017.0 EXECUTION ROCKS 0500 74 150/ 4/ 4 N/A CENTRAL LI SOUND NOT AVBL EASTERN LI SOUND 0500 71 70 140/ 4/ 4 N/A ROBBINS REEF 0500 75 180/ 4/ 4 1016.6 $$ >>>>>>>>>>>>>>>>>>>>>>>>>>>> KEY <<<<<<<<<<<<<<<<<<<<<<<<<<< > < > SKY/WX - SKY CONDITION/PRESENT WEATHER < > TMP - TEMPERATURE IN FAHRENHEIT < > DP - DEWPOINT IN FAHRENHEIT < > RH - RELATIVE HUMIDITY IN PERCENT < > WIND - DIRECTION AND SPEED IN MPH < > PRES - MEAN SEA LEVEL PRESSURE IN INCHES OF HG < > WCI - WIND CHILL INDEX < > VSB - VISIBILITY IN MILES < > HX - HEAT INDEX < > TC - TEMPERATURE IN CELSIUS < > VRB - VARIABLE WIND DIRECTION < > < >>>>>>>>>>>>>>>>>>>>>>>>>>>> KEY <<<<<<<<<<<<<<<<<<<<<<<<<<<

USA.gov is the U.S. government's official web portal to all federal, state and local government web resources and services.